カタログに戻る

COSMOS 1275 DEB

運用中PO
NORAD 12670·DEBRIS·🇷🇺 Russia

打ち上げ Jun 4, 1981 から Plesetsk Cosmodrome

Loading…

次のパス (今後24時間)

TLE

最新Source: Space-Track

元期: Sep 14, 2026, 15:52 UTC

1 12670U 81053AA  26257.66120138  .00000397  00000-0  35581-3 0  9996
2 12670  82.9409 137.5353 0054275 171.7993 217.2786 13.81207259266125

AllMySatでCOSMOS 1275 DEBをリアルタイム追跡

Download on the App Store